AB9HP Weather Reports


Display with metric or nautical units.
time (UTC)temp
F
wind
direction
speed
MPH
gust
MPH
rain 1hr
in
rain 24hr
in
rain mn
in
humidity
%
barometer
mb
20260507044555 46 238 0.0 0.0 0.00 0.15 0.00 71 1015.3
20260507043050 47 266 0.0 0.0 0.00 0.15 0.00 71 1015.2
20260507041546 47 243 0.0 1.0 0.00 0.15 0.00 71 1015.2
20260507040040 47 264 0.0 0.0 0.00 0.15 0.00 71 1015.1
20260507034540 48 234 0.0 0.0 0.00 0.26 0.15 72 1015.3
20260507033044 48 263 0.0 0.0 0.00 0.26 0.15 72 1015.2
20260507031536 48 231 0.0 0.0 0.00 0.26 0.15 71 1015.1
20260507030033 49 259 0.0 0.0 0.00 0.26 0.15 71 1015.1
20260507024536 49 239 0.0 0.0 0.00 0.31 0.15 70 1015.1
20260507023034 50 248 0.0 0.0 0.00 0.31 0.15 68 1015.1
20260507021527 50 250 0.0 0.0 0.00 0.31 0.15 67 1015.1
20260507020026 51 250 0.0 0.0 0.00 0.31 0.15 65 1015.0
20260507014525 51 242 0.0 0.0 0.00 0.35 0.15 65 1015.1
20260507013023 52 264 0.0 0.0 0.00 0.35 0.15 64 1014.8
20260507011522 52 259 0.0 0.0 0.00 0.35 0.15 64 1014.8
20260507010024 53 266 0.0 1.0 0.00 0.35 0.15 62 1014.7
20260507004522 53 233 0.0 2.0 0.00 0.42 0.15 61 1014.2
20260507003016 54 233 0.0 3.0 0.00 0.42 0.15 60 1014.3
20260507001516 54 239 0.0 2.0 0.00 0.42 0.15 60 1014.2
20260507000016 54 278 0.0 4.0 0.00 0.42 0.15 59 1014.0
20260506234513 54 283 0.0 4.0 0.00 0.47 0.15 57 1014.1
20260506233012 55 229 0.0 7.0 0.00 0.47 0.15 55 1014.1
20260506231509 55 260 0.0 5.0 0.00 0.47 0.15 53 1014.3
20260506230008 57 256 2.0 7.0 0.00 0.47 0.15 50 1014.3
20260506224503 56 253 0.0 8.0 0.00 0.56 0.15 52 1014.2
20260506223001 56 229 5.0 10.0 0.00 0.56 0.15 52 1014.5
20260506221600 56 222 3.0 9.0 0.00 0.56 0.15 51 1014.3
20260506220058 56 258 3.0 11.0 0.00 0.56 0.15 52 1014.2
20260506214604 56 225 2.0 10.0 0.00 0.61 0.15 50 1014.2
20260506213050 56 248 3.0 12.0 0.00 0.61 0.15 53 1014.3
20260506211546 55 245 1.0 10.0 0.00 0.61 0.15 54 1014.4
20260506210043 54 317 0.0 10.0 0.00 0.61 0.15 55 1014.3
20260506204548 55 242 0.0 6.0 0.00 0.66 0.15 53 1014.4
20260506203039 55 247 1.0 8.0 0.00 0.66 0.15 55 1014.2
20260506201536 55 225 0.0 7.0 0.00 0.66 0.15 55 1014.4
20260506200035 55 257 2.0 9.0 0.00 0.66 0.15 54 1014.5
20260506194534 54 265 0.0 6.0 0.00 0.76 0.15 55 1014.4
20260506193031 54 290 3.0 12.0 0.00 0.76 0.15 51 1014.5
20260506191530 54 229 1.0 6.0 0.00 0.76 0.15 54 1014.4
20260506190028 54 249 2.0 8.0 0.00 0.76 0.15 53 1014.4
20260506183024 54 208 0.0 6.0 0.00 0.84 0.15 55 1014.6
20260506181523 54 229 1.0 7.0 0.00 0.84 0.15 55 1014.5
20260506180019 54 230 2.0 5.0 0.00 0.84 0.15 53 1014.6
20260506174519 54 238 0.0 6.0 0.00 0.89 0.15 54 1014.5
20260506173017 54 238 0.0 5.0 0.00 0.89 0.15 53 1014.4
20260506171519 54 245 0.0 3.0 0.00 0.89 0.15 53 1014.5
20260506170109 53 289 0.0 6.0 0.00 0.89 0.15 55 1014.5
20260506164507 53 295 0.0 6.0 0.00 0.93 0.15 56 1014.5
20260506163008 53 240 0.0 3.0 0.00 0.93 0.15 58 1014.7
20260506161502 53 12 0.0 3.0 0.00 0.93 0.15 58 1014.7
20260506160002 53 252 0.0 5.0 0.00 0.94 0.15 57 1014.7
20260506154502 53 215 0.0 2.0 0.00 0.94 0.15 57 1014.5
20260506153005 53 274 2.0 7.0 0.00 0.94 0.15 57 1014.6
20260506151559 52 333 0.0 4.0 0.00 0.94 0.15 55 1014.4
20260506150058 52 360 0.0 5.0 0.00 0.94 0.15 60 1014.2
20260506144602 51 11 0.0 4.0 0.00 0.94 0.15 59 1014.2
20260506143046 51 307 2.0 8.0 0.00 0.94 0.15 56 1014.1
20260506141541 51 333 1.0 6.0 0.00 0.94 0.15 59 1013.9
20260506140039 51 331 0.0 6.0 0.00 0.94 0.15 61 1013.8
20260506134538 50 8 1.0 7.0 0.00 0.94 0.15 60 1013.7
20260506133040 50 340 0.0 5.0 0.00 0.94 0.15 68 1013.4
20260506131528 49 1 0.0 5.0 0.00 0.94 0.15 75 1013.4
20260506130025 48 274 0.0 2.0 0.00 0.94 0.15 81 1013.3
20260506124521 47 319 3.0 6.0 0.00 0.94 0.15 83 1012.9
20260506123017 47 321 1.0 5.0 0.00 0.94 0.15 88 1012.8
20260506121512 46 257 1.0 5.0 0.00 0.94 0.15 89 1012.6
20260506120021 45 259 0.0 3.0 0.00 0.94 0.15 91 1012.6
20260506114506 44 221 0.0 2.0 0.00 0.94 0.15 91 1012.2
20260506113003 44 245 0.0 2.0 0.00 0.94 0.15 91 1011.9
20260506111503 44 269 0.0 2.0 0.00 0.94 0.15 92 1011.8
20260506110058 44 259 0.0 2.0 0.00 0.94 0.15 92 1011.5
20260506104600 44 259 0.0 1.0 0.00 0.94 0.15 92 1011.4
20260506103057 44 236 0.0 1.0 0.00 0.94 0.15 92 1011.1
20260506101553 44 236 0.0 1.0 0.00 0.94 0.15 92 1011.2
20260506100053 44 262 0.0 2.0 0.00 0.94 0.15 92 1010.9
20260506094602 44 262 0.0 1.0 0.00 0.94 0.15 92 1010.5
20260506093047 44 262 0.0 2.0 0.00 0.94 0.15 92 1010.5
20260506091546 44 286 0.0 2.0 0.00 0.94 0.15 92 1010.7
20260506090044 44 243 0.0 2.0 0.00 0.94 0.15 92 1010.8
20260506084542 44 266 0.0 2.0 0.00 0.94 0.15 92 1010.6
20260506083041 43 229 0.0 2.0 0.00 0.94 0.15 92 1010.4
20260506081536 43 288 0.0 1.0 0.00 0.94 0.15 92 1009.9
20260506073032 43 169 0.0 2.0 0.01 0.95 0.15 91 1009.8
20260506071529 43 160 0.0 2.0 0.02 0.95 0.15 91 1010.1
20260506061525 43 223 0.0 2.0 0.05 1.08 0.13 91 1010.7